DW0275 Weather Reports


Display with metric or nautical units.
time (UTC)temp
F
wind
direction
speed
MPH
gust
MPH
rain 1hr
in
rain 24hr
in
rain mn
in
humidity
%
barometer
mb
20260506111832 74 42 0.0 0.0 0.00 0.00 0.00 90 1017.1
20260506111323 74 42 0.0 0.0 0.00 0.00 0.00 90 1017.0
20260506110833 73 42 0.0 0.0 0.00 0.00 0.00 90 1016.7
20260506110326 73 42 0.0 0.0 0.00 0.00 0.00 90 1016.6
20260506105828 73 42 0.0 0.0 0.00 0.00 0.00 90 1016.6
20260506105328 72 42 0.0 0.0 0.00 0.00 0.00 90 1016.6
20260506104843 72 42 0.0 0.0 0.00 0.00 0.00 90 1016.6
20260506104351 73 42 0.0 0.0 0.00 0.00 0.00 90 1016.4
20260506103853 72 42 0.0 0.0 0.00 0.00 0.00 90 1016.4
20260506103323 72 42 0.0 0.0 0.00 0.00 0.00 90 1016.5
20260506102844 73 42 0.0 0.0 0.00 0.00 0.00 90 1016.5
20260506102337 73 42 0.0 0.0 0.00 0.00 0.00 89 1016.6
20260506101835 73 58 0.0 0.0 0.00 0.00 0.00 89 1016.6
20260506101329 72 58 0.0 0.0 0.00 0.00 0.00 89 1016.5
20260506100821 73 58 0.0 0.0 0.00 0.00 0.00 89 1016.5
20260506100334 73 58 0.0 0.0 0.00 0.00 0.00 89 1016.5
20260506095845 73 58 0.0 0.0 0.00 0.00 0.00 89 1016.4
20260506095332 73 58 0.0 0.0 0.00 0.00 0.00 88 1016.4
20260506094918 73 58 0.0 0.0 0.00 0.00 0.00 88 1016.3
20260506094404 73 58 0.0 0.0 0.00 0.00 0.00 88 1016.3
20260506093829 73 58 0.0 0.0 0.00 0.00 0.00 88 1016.3
20260506093343 74 58 0.0 0.0 0.00 0.00 0.00 88 1016.2
20260506092827 74 58 0.0 0.0 0.00 0.00 0.00 89 1016.1
20260506092326 73 58 0.0 0.0 0.00 0.00 0.00 88 1016.2
20260506091838 73 58 0.0 0.0 0.00 0.00 0.00 88 1016.2
20260506091330 73 58 0.0 0.0 0.00 0.00 0.00 88 1016.2
20260506090845 74 58 0.0 0.0 0.00 0.00 0.00 88 1016.2
20260506090353 74 58 0.0 0.0 0.00 0.00 0.00 88 1016.1
20260506085821 74 58 0.0 0.0 0.00 0.00 0.00 87 1015.9
20260506085343 74 58 0.0 0.0 0.00 0.00 0.00 87 1016.0
20260506084855 74 58 0.0 0.0 0.00 0.00 0.00 87 1016.0
20260506084325 74 58 0.0 0.0 0.00 0.00 0.00 87 1016.0
20260506083835 74 58 0.0 0.0 0.00 0.00 0.00 87 1016.1
20260506083346 74 58 0.0 0.0 0.00 0.00 0.00 86 1016.1
20260506082839 75 58 0.0 0.0 0.00 0.00 0.00 86 1016.2
20260506082332 75 58 0.0 0.0 0.00 0.00 0.00 86 1016.3
20260506081853 75 58 0.0 0.0 0.00 0.00 0.00 86 1016.2
20260506081326 75 58 0.0 0.0 0.00 0.00 0.00 86 1016.3
20260506080848 75 58 0.0 0.0 0.00 0.00 0.00 86 1016.3
20260506080342 75 58 0.0 0.0 0.00 0.00 0.00 86 1016.2
20260506073345 76 124 0.0 1.0 0.00 0.00 0.00 84 1016.0
20260506072852 76 125 0.0 2.0 0.00 0.00 0.00 84 1016.0
20260506072326 76 125 1.0 2.0 0.00 0.00 0.00 84 1016.1
20260506071831 76 133 1.0 2.0 0.00 0.00 0.00 84 1016.1
20260506071343 77 77 0.0 2.0 0.00 0.00 0.00 83 1016.1
20260506070904 77 131 0.0 2.0 0.00 0.00 0.00 83 1016.1
20260506070331 77 129 0.0 2.0 0.00 0.00 0.00 83 1016.0
20260506062352 77 119 1.0 4.0 0.00 0.00 0.00 83 1016.3
20260506061835 77 137 2.0 4.0 0.00 0.00 0.00 84 1016.4
20260506061337 77 64 1.0 4.0 0.00 0.00 0.00 84 1016.4
20260506060828 77 110 0.0 0.0 0.00 0.00 0.00 84 1016.3
20260506060346 77 116 0.0 0.0 0.00 0.00 0.00 84 1016.4
20260506051343 76 122 0.0 0.0 0.00 0.20 0.00 83 1016.7
20260506050901 76 125 0.0 0.0 0.00 0.20 0.00 83 1016.8
20260506050329 76 72 0.0 0.0 0.00 0.20 0.00 83 1016.8
20260506044821 77 71 0.0 1.0 0.00 0.23 0.00 83 1016.8
20260506044322 77 131 0.0 2.0 0.00 0.23 0.00 83 1016.9
20260506043836 77 110 0.0 2.0 0.00 0.23 0.00 83 1016.9
20260506043337 77 91 0.0 3.0 0.00 0.23 0.00 83 1016.9
20260506042832 77 96 0.0 3.0 0.00 0.23 0.00 83 1017.0
20260506042406 77 57 1.0 3.0 0.00 0.23 0.00 83 1017.0
20260506041827 77 90 1.0 3.0 0.00 0.23 0.00 83 1017.0
20260506041339 77 77 1.0 2.0 0.00 0.23 0.00 83 1017.2
20260506040828 77 124 0.0 2.0 0.00 0.23 0.00 83 1017.2
20260506040322 77 124 0.0 3.0 0.00 0.23 0.00 83 1017.3
20260506035835 77 75 1.0 3.0 0.00 0.23 0.00 83 1017.2
20260506035330 77 65 1.0 3.0 0.00 0.23 0.23 83 1017.2
20260506034823 77 91 0.0 2.0 0.00 0.23 0.23 83 1017.2
20260506034332 77 77 1.0 2.0 0.00 0.23 0.23 82 1017.2
20260506033847 77 75 1.0 3.0 0.00 0.23 0.23 82 1017.1
20260506033320 77 66 2.0 3.0 0.00 0.23 0.23 82 1017.1
20260506032843 77 68 0.0 4.0 0.00 0.23 0.23 82 1017.1
20260506032336 77 66 2.0 4.0 0.00 0.23 0.23 82 1017.2
20260506031857 77 125 1.0 4.0 0.00 0.23 0.23 82 1017.1
20260506031328 77 35 0.0 4.0 0.00 0.23 0.23 82 1017.1
20260506030821 77 72 2.0 4.0 0.00 0.23 0.23 82 1017.0
20260506030321 77 37 1.0 3.0 0.00 0.23 0.23 82 1016.9
20260506025835 77 49 1.0 5.0 0.00 0.23 0.23 82 1017.0
20260506025337 77 73 3.0 7.0 0.00 0.23 0.23 82 1017.0
20260506024829 77 21 2.0 7.0 0.00 0.23 0.23 82 1017.0
20260506024322 77 51 2.0 6.0 0.00 0.23 0.23 82 1017.0
20260506023836 77 65 2.0 7.0 0.00 0.23 0.23 82 1016.9
20260506023329 77 27 3.0 7.0 0.00 0.23 0.23 82 1016.9
20260506022821 77 89 2.0 6.0 0.00 0.23 0.23 82 1016.8
20260506022349 77 70 2.0 6.0 0.00 0.23 0.23 82 1016.7
20260506021844 77 59 3.0 5.0 0.00 0.23 0.23 82 1016.7
20260506021330 77 114 2.0 5.0 0.00 0.23 0.23 81 1016.6
20260506020820 77 114 2.0 8.0 0.00 0.23 0.23 81 1016.6
20260506020328 77 53 4.0 8.0 0.00 0.23 0.23 81 1016.6
20260506015821 77 57 3.0 7.0 0.00 0.23 0.23 81 1016.5
20260506015320 77 102 3.0 6.0 0.00 0.23 0.23 81 1016.6
20260506014834 77 140 2.0 5.0 0.00 0.23 0.23 81 1016.5
20260506014341 77 116 3.0 6.0 0.00 0.23 0.23 81 1016.3
20260506013848 77 27 2.0 7.0 0.00 0.23 0.23 81 1016.3
20260506013342 77 158 3.0 7.0 0.00 0.23 0.23 81 1016.2
20260506012827 78 150 3.0 7.0 0.00 0.23 0.23 81 1016.2
20260506012341 77 76 4.0 7.0 0.00 0.23 0.23 81 1016.1
20260506011835 77 76 3.0 6.0 0.00 0.23 0.23 81 1016.0
20260506011327 78 128 3.0 8.0 0.00 0.23 0.23 81 1015.9
20260506010822 78 64 3.0 8.0 0.00 0.23 0.23 81 1015.9
20260506010344 78 69 5.0 7.0 0.00 0.23 0.23 80 1015.8
20260506005837 78 62 3.0 8.0 0.00 0.23 0.23 80 1015.9
20260506005320 78 77 4.0 8.0 0.00 0.23 0.23 80 1016.0
20260506004831 78 74 5.0 8.0 0.00 0.23 0.23 81 1016.0
20260506004407 78 44 3.0 8.0 0.00 0.23 0.23 81 1016.0
20260506003831 78 70 3.0 6.0 0.00 0.23 0.23 81 1016.1
20260506003325 78 68 3.0 9.0 0.00 0.23 0.23 81 1016.1
20260506002838 78 134 4.0 9.0 0.00 0.23 0.23 81 1016.0
20260506002325 78 72 5.0 9.0 0.00 0.23 0.23 81 1016.0
20260506001321 78 38 3.0 8.0 0.00 0.23 0.23 81 1016.1
20260506000845 78 79 4.0 8.0 0.00 0.23 0.23 81 1016.0
20260506000401 78 56 5.0 8.0 0.00 0.23 0.23 80 1016.0
20260505235827 78 139 4.0 8.0 0.00 0.23 0.23 80 1015.9
20260505235321 78 86 6.0 10.0 0.00 0.23 0.23 80 1015.8
20260505234834 78 53 6.0 14.0 0.00 0.23 0.23 80 1015.6
20260505234348 78 86 4.0 14.0 0.00 0.23 0.23 80 1015.6
20260505233819 78 67 6.0 11.0 0.00 0.23 0.23 80 1015.5
20260505233329 78 49 6.0 11.0 0.00 0.23 0.23 80 1015.5
20260505232843 78 73 4.0 11.0 0.00 0.23 0.23 80 1015.4
20260505232331 79 29 6.0 11.0 0.00 0.23 0.23 80 1015.3
20260505231856 79 44 5.0 11.0 0.00 0.23 0.23 80 1015.4
20260505231341 79 68 6.0 11.0 0.00 0.23 0.23 80 1015.4
20260505230828 79 56 3.0 9.0 0.00 0.23 0.23 80 1015.4
20260505230343 79 45 5.0 11.0 0.00 0.23 0.23 80 1015.5
20260505225829 79 71 5.0 13.0 0.00 0.23 0.23 80 1015.6
20260505225323 79 58 7.0 10.0 0.00 0.23 0.23 80 1015.5
20260505224838 79 50 6.0 10.0 0.00 0.23 0.23 79 1015.6
20260505224347 79 26 4.0 10.0 0.00 0.23 0.23 79 1015.6
20260505223821 79 68 6.0 10.0 0.00 0.23 0.23 79 1015.5
20260505223323 79 58 5.0 9.0 0.00 0.23 0.23 80 1015.5
20260505222842 79 59 5.0 12.0 0.00 0.23 0.23 79 1015.5
20260505222351 79 46 6.0 12.0 0.00 0.23 0.23 79 1015.5
20260505221848 80 105 4.0 10.0 0.00 0.23 0.23 79 1015.4
20260505221330 80 63 5.0 10.0 0.00 0.23 0.23 79 1015.3
20260505220837 80 146 5.0 13.0 0.00 0.23 0.23 79 1015.3
20260505220331 80 50 5.0 13.0 0.00 0.23 0.23 79 1015.3
20260505215823 80 54 6.0 9.0 0.00 0.23 0.23 78 1015.3
20260505215333 81 139 5.0 9.0 0.00 0.23 0.23 78 1015.4
20260505214845 81 23 4.0 13.0 0.00 0.23 0.23 79 1015.3
20260505214330 81 51 8.0 13.0 0.00 0.23 0.23 79 1015.2
20260505213825 81 65 7.0 12.0 0.00 0.23 0.23 78 1015.0
20260505213320 81 115 4.0 10.0 0.00 0.23 0.23 78 1014.9
20260505212831 81 25 5.0 11.0 0.00 0.23 0.23 78 1015.0
20260505212405 81 115 6.0 11.0 0.00 0.23 0.23 77 1014.7
20260505211829 81 65 5.0 14.0 0.00 0.23 0.23 78 1014.7
20260505211322 81 49 6.0 14.0 0.00 0.23 0.23 77 1014.6
20260505210837 81 79 5.0 12.0 0.00 0.23 0.23 77 1014.6
20260505210328 82 33 5.0 11.0 0.00 0.23 0.23 78 1014.6
20260505205821 82 61 6.0 10.0 0.00 0.23 0.23 77 1014.7
20260505205343 82 67 4.0 10.0 0.00 0.23 0.23 77 1014.8
20260505204829 82 61 4.0 11.0 0.00 0.23 0.23 78 1014.6
20260505204323 82 328 6.0 11.0 0.00 0.23 0.23 77 1014.8
20260505203832 82 50 5.0 9.0 0.00 0.23 0.23 76 1014.9
20260505203328 82 77 5.0 10.0 0.00 0.23 0.23 76 1014.8
20260505202820 82 128 4.0 10.0 0.00 0.23 0.23 76 1014.9
20260505202335 82 101 5.0 10.0 0.00 0.23 0.23 76 1014.9
20260505201841 82 84 5.0 10.0 0.00 0.23 0.23 76 1015.1
20260505201350 82 63 5.0 8.0 0.00 0.23 0.23 75 1015.1
20260505200823 82 212 3.0 12.0 0.00 0.23 0.23 76 1015.1
20260505200337 82 27 6.0 12.0 0.00 0.23 0.23 75 1015.0
20260505195852 83 59 4.0 11.0 0.00 0.23 0.23 76 1015.1
20260505195323 83 44 4.0 8.0 0.00 0.23 0.23 76 1015.1
20260505194832 82 61 3.0 10.0 0.00 0.23 0.23 77 1015.2
20260505194347 82 39 6.0 10.0 0.00 0.23 0.23 76 1015.2
20260505193905 82 37 4.0 10.0 0.00 0.23 0.23 76 1015.2
20260505193329 83 68 5.0 9.0 0.00 0.23 0.23 77 1015.3
20260505192821 82 67 5.0 11.0 0.00 0.23 0.23 76 1015.4
20260505192331 82 52 6.0 11.0 0.00 0.23 0.23 76 1015.4
20260505191824 82 22 5.0 10.0 0.00 0.23 0.23 76 1015.5
20260505191346 82 345 5.0 8.0 0.00 0.23 0.23 77 1015.6
20260505190819 82 101 5.0 9.0 0.00 0.23 0.23 77 1015.7
20260505190334 82 108 5.0 9.0 0.00 0.23 0.23 77 1015.6
20260505185827 82 49 3.0 13.0 0.00 0.23 0.23 77 1015.6
20260505185337 82 106 5.0 13.0 0.00 0.23 0.23 77 1015.6
20260505184902 82 55 4.0 10.0 0.00 0.23 0.23 77 1015.6
20260505184322 82 56 5.0 10.0 0.00 0.23 0.23 77 1015.7
20260505183843 82 72 5.0 11.0 0.00 0.23 0.23 77 1015.7
20260505183335 82 36 4.0 11.0 0.00 0.23 0.23 78 1015.8
20260505182825 83 67 4.0 10.0 0.00 0.23 0.23 77 1015.6
20260505182334 82 51 5.0 12.0 0.00 0.23 0.23 78 1015.6
20260505181838 82 122 6.0 12.0 0.00 0.23 0.23 78 1015.8
20260505181403 82 118 5.0 9.0 0.00 0.23 0.23 78 1015.7
20260505180848 82 13 5.0 12.0 0.00 0.23 0.23 78 1015.8
20260505180327 82 123 5.0 12.0 0.00 0.23 0.23 78 1016.0
20260505175820 82 27 7.0 12.0 0.00 0.23 0.23 79 1016.2
20260505175343 81 52 6.0 10.0 0.00 0.23 0.23 78 1016.1
20260505174838 82 60 5.0 11.0 0.00 0.23 0.23 78 1016.1
20260505174348 82 63 6.0 11.0 0.00 0.23 0.23 78 1016.3
20260505173841 81 5 5.0 12.0 0.00 0.23 0.23 79 1016.3
20260505173407 81 46 7.0 12.0 0.00 0.23 0.23 79 1016.2
20260505172819 82 67 6.0 9.0 0.00 0.23 0.23 79 1016.1
20260505172352 81 49 4.0 13.0 0.00 0.23 0.23 79 1016.1
20260505171829 82 109 6.0 13.0 0.00 0.23 0.23 78 1016.1
20260505171322 82 41 4.0 10.0 0.00 0.23 0.23 79 1016.3
20260505170823 81 75 4.0 10.0 0.00 0.23 0.23 79 1016.3
20260505170344 82 18 6.0 10.0 0.00 0.23 0.23 78 1016.3
20260505165835 83 85 3.0 8.0 0.00 0.23 0.23 79 1016.4
20260505165327 82 108 3.0 12.0 0.00 0.23 0.23 78 1016.3
20260505164836 82 155 7.0 12.0 0.00 0.23 0.23 78 1016.4
20260505164331 82 138 6.0 16.0 0.00 0.23 0.23 79 1016.3
20260505163836 82 35 6.0 16.0 0.00 0.23 0.23 79 1016.4
20260505163331 82 38 5.0 10.0 0.00 0.23 0.23 78 1016.4
20260505162844 82 47 4.0 12.0 0.00 0.23 0.23 79 1016.5
20260505162354 82 59 5.0 12.0 0.00 0.23 0.23 77 1016.5
20260505161846 82 117 5.0 8.0 0.00 0.23 0.23 77 1016.5
20260505161403 83 44 3.0 7.0 0.00 0.23 0.23 79 1016.6
20260505160824 82 132 4.0 10.0 0.00 0.23 0.23 78 1016.6
20260505160333 82 28 5.0 10.0 0.00 0.23 0.23 79 1016.5
20260505153327 81 60 6.0 10.0 0.00 0.24 0.23 79 1016.4
20260505152819 82 23 4.0 8.0 0.00 0.24 0.23 79 1016.4
20260505152322 82 66 5.0 7.0 0.00 0.24 0.23 79 1016.5
20260505151850 82 95 3.0 9.0 0.00 0.24 0.23 79 1016.5
20260505151357 81 53 5.0 9.0 0.00 0.24 0.23 78 1016.4
20260505150848 81 58 3.0 8.0 0.00 0.24 0.23 79 1016.5
20260505150335 81 51 4.0 10.0 0.00 0.24 0.23 79 1016.5
20260505140325 80 113 3.0 9.0 0.00 0.27 0.23 81 1016.3
20260505124832 77 76 4.0 8.0 0.00 0.28 0.23 85 1015.8
20260505124324 77 29 2.0 8.0 0.00 0.28 0.23 85 1015.8
20260505123831 77 143 3.0 9.0 0.00 0.28 0.23 84 1015.8
20260505123321 77 58 4.0 9.0 0.00 0.28 0.23 84 1015.6
20260505122824 77 39 4.0 8.0 0.00 0.28 0.23 85 1015.4
20260505122344 77 82 4.0 7.0 0.00 0.28 0.23 85 1015.3
20260505121827 77 83 3.0 5.0 0.00 0.28 0.23 86 1015.3
20260505121333 76 60 3.0 6.0 0.00 0.28 0.23 86 1015.4
20260505120836 76 68 4.0 6.0 0.00 0.28 0.23 87 1015.2
20260505120326 76 73 3.0 6.0 0.00 0.28 0.23 87 1015.2
20260505115830 75 354 3.0 5.0 0.00 0.28 0.23 88 1015.3
20260505115323 75 37 2.0 5.0 0.00 0.28 0.23 88 1015.1
20260505114832 75 124 1.0 3.0 0.00 0.28 0.23 89 1015.1
20260505114354 75 46 2.0 3.0 0.00 0.28 0.23 89 1015.3
20260505113845 75 44 1.0 3.0 0.00 0.28 0.23 89 1015.2
20260505113347 74 42 0.0 2.0 0.00 0.28 0.23 90 1015.2
20260505112839 74 42 1.0 2.0 0.00 0.28 0.23 90 1015.1
20260505112326 73 43 0.0 2.0 0.00 0.28 0.23 91 1015.1